Weather History for PHKO - March, 2013

Change the Weather History Date:

Saturday, March 23, 2013

  Actual Average Record
Temperature  
Mean Temperature 77 °F -  
Max Temperature 81 °F 79 °F 87 °F (1982)
Min Temperature 73 °F 68 °F 65 °F (1990)
Cooling Degree Days 12    
Growing Degree Days 27 (Base 50)    
Moisture  
Dew Point 65 °F    
Average Humidity 69    
Maximum Humidity 82    
Minimum Humidity 52    
Precipitation  
Precipitation 0.00 in - - ()
Sea Level Pressure  
Sea Level Pressure 29.96 in    
Wind  
Wind Speed 11 mph (NNE)    
Max Wind Speed 17 mph    
Max Gust Speed -    
Visibility 10 miles    
Events      
Averages and records for this station are not official NWS values.
T = Trace of Precipitation, MM = Missing Value Source: NWS Daily Summary

Daily Weather History Graph

Daily Weather History Graph

Search for Another Location

Airport or City:

Trip Planner

Search our weather history database for the weather conditions in past years. The results will help you decide how hot, cold, wet, or windy it might be!

Date:

Astronomy

Mar. 23, 2013 Rise Set
Actual Time 6:25 AM HST 6:36 PM HST
Civil Twilight 6:03 AM HST 6:58 PM HST
Nautical Twilight 5:37 AM HST 7:23 PM HST
Astronomical Twilight 5:12 AM HST 7:49 PM HST
Moon 3:36 PM HST (3/23) 3:42 AM HST (3/23)
Length of Visible Light 12h 54m
Length of Day
12h 10m
Waxing Gibbous, 86% of the Moon is Illuminated
Mar 23
Waxing Gibbous
Mar 26
Full
Apr 2
Last Quarter
Apr 9
New
Apr 18
First Quarter

Hourly Weather History & Observations

Time (HST) Temp. Heat Index Dew Point Humidity Pressure Visibility Wind Dir Wind Speed Gust Speed Precip Events Conditions
12:53 AM 73.9 °F - 64.9 °F 73% 29.96 in 10.0 mi NNE 10.4 mph - N/A   Clear
1:53 AM 73.9 °F - 64.9 °F 73% 29.96 in 10.0 mi NNE 10.4 mph - N/A   Partly Cloudy
2:53 AM 73.9 °F - 64.9 °F 73% 29.94 in 10.0 mi North 9.2 mph - N/A   Overcast
3:53 AM 73.0 °F - 66.0 °F 79% 29.93 in 10.0 mi NNE 10.4 mph - N/A   Overcast
4:53 AM 73.9 °F - 64.0 °F 71% 29.93 in 10.0 mi NNW 9.2 mph - N/A   Mostly Cloudy
5:53 AM 73.0 °F - 61.0 °F 66% 29.95 in 10.0 mi NE 9.2 mph - N/A   Partly Cloudy
6:53 AM 73.9 °F - 62.1 °F 66% 29.97 in 10.0 mi NNE 8.1 mph - N/A   Mostly Cloudy
7:53 AM 75.9 °F - 62.1 °F 62% 29.99 in 10.0 mi North 9.2 mph - N/A   Mostly Cloudy
8:53 AM 80.1 °F 81.2 °F 62.1 °F 54% 29.99 in 10.0 mi North 12.7 mph - N/A   Clear
9:53 AM 81.0 °F 81.9 °F 62.1 °F 52% 30.00 in 10.0 mi North 17.3 mph - N/A   Scattered Clouds
10:53 AM 80.1 °F 81.9 °F 64.9 °F 60% 29.99 in 10.0 mi North 15.0 mph - N/A   Partly Cloudy
11:53 AM 78.1 °F - 64.0 °F 62% 29.98 in 10.0 mi NNW 16.1 mph - N/A   Mostly Cloudy
12:53 PM 81.0 °F 83.3 °F 66.9 °F 62% 29.96 in 10.0 mi North 15.0 mph - N/A   Mostly Cloudy
1:53 PM 81.0 °F 83.0 °F 66.0 °F 60% 29.94 in 10.0 mi NW 16.1 mph - N/A   Mostly Cloudy
2:53 PM 81.0 °F 83.0 °F 66.0 °F 60% 29.92 in 10.0 mi NNW 16.1 mph - N/A   Partly Cloudy
3:53 PM 79.0 °F - 66.9 °F 66% 29.91 in 10.0 mi NNW 15.0 mph - N/A   Mostly Cloudy
4:53 PM 77.0 °F - 66.9 °F 71% 29.91 in 10.0 mi NNW 17.3 mph - N/A   Overcast
5:53 PM 77.0 °F - 66.9 °F 71% 29.93 in 10.0 mi NNW 10.4 mph - N/A   Overcast
6:53 PM 75.9 °F - 68.0 °F 76% 29.96 in 10.0 mi NNW 12.7 mph - N/A   Overcast
7:53 PM 75.9 °F - 69.1 °F 79% 29.98 in 10.0 mi SE 4.6 mph - N/A   Overcast
8:18 PM 73.4 °F - 66.2 °F 78% 29.98 in 10.0 mi SE 12.7 mph - N/A   Overcast
8:53 PM 73.9 °F - 68.0 °F 82% 30.00 in 10.0 mi SE 12.7 mph - N/A   Overcast
9:32 PM 73.4 °F - 66.2 °F 78% 30.00 in 10.0 mi SSE 10.4 mph - N/A   Scattered Clouds
9:53 PM 73.9 °F - 66.9 °F 79% 30.00 in 10.0 mi SSE 6.9 mph - N/A   Partly Cloudy
10:53 PM 73.9 °F - 66.0 °F 76% 29.98 in 10.0 mi ESE 8.1 mph - N/A   Clear
11:53 PM 73.0 °F - 64.9 °F 76% 29.97 in 10.0 mi ESE 6.9 mph - N/A   Clear